Lewiston, WA

1:10 AM PDT on May 23, 2017 (GMT -0700)
Lewiston-Nez Perce County

Weather History for KLWS - March, 2012

Change the Weather History Date:

Saturday, March 10, 2012

  Actual Average Record
Temperature  
Mean Temperature 49 °F 44 °F  
Max Temperature 63 °F 53 °F 71 °F (2015)
Min Temperature 35 °F 34 °F 14 °F (1948)
Degree Days  
Heating Degree Days 16 21  
Month to date heating degree days 215 224  
Since 1 July heating degree days 3887 4079  
Cooling Degree Days 0 0  
Month to date cooling degree days 0 0  
Year to date cooling degree days 0 0  
Moisture  
Dew Point 32 °F    
Average Humidity 56    
Maximum Humidity 82    
Minimum Humidity 30    
Precipitation  
Precipitation 0.00 in 0.03 in 0.53 in (1990)
Month to date precipitation 0.02 0.34  
Year to date precipitation 2.62 2.20  
Snow  
Snow 0.00 in 0.10 in 2.50 in (1950)
Month to date snowfall T 0.5  
Since 1 July snowfall 13.5 10.3  
Snow Depth 0.00 in    
Sea Level Pressure  
Sea Level Pressure 29.84 in    
Wind  
Wind Speed 4 mph (North)    
Max Wind Speed 15 mph    
Max Gust Speed 20 mph    
Visibility 10 miles    
Events      
T = Trace of Precipitation, MM = Missing Value Source: NWS Daily Summary

Daily Weather History Graph

Daily Weather History Graph

Search for Another Location

Airport or City:

Trip Planner

Search our weather history database for the weather conditions in past years. The results will help you decide how hot, cold, wet, or windy it might be!

Date:

Astronomy

Mar. 10, 2012 Rise Set
Actual Time 6:09 AM PST 5:47 PM PST
Civil Twilight 5:39 AM PST 6:17 PM PST
Nautical Twilight 5:04 AM PST 6:52 PM PST
Astronomical Twilight 4:29 AM PST 7:28 PM PST
Moon 9:21 PM PST (3/10) 6:54 AM PST (3/10)
Length of Visible Light 12h 38m
Length of Day
11h 38m
Waning Gibbous, 92% of the Moon is Illuminated
Mar 10
Waning Gibbous
Mar 14
Last Quarter
Mar 22
New
Mar 30
First Quarter
Apr 6
Full

Hourly Weather History & Observations

Time (PST) Temp. Windchill Dew Point Humidity Pressure Visibility Wind Dir Wind Speed Gust Speed Precip Events Conditions
12:56 AM 39.9 °F 36.7 °F 27.0 °F 60% 29.94 in 10.0 mi SE 4.6 mph - N/A   Clear
1:56 AM 44.1 °F 42.5 °F 30.9 °F 60% 29.93 in 10.0 mi ESE 3.5 mph - N/A   Clear
2:56 AM 41.0 °F - 30.9 °F 67% 29.91 in 10.0 mi Calm Calm - N/A   Clear
3:56 AM 39.9 °F - 30.0 °F 68% 29.90 in 10.0 mi Calm Calm - N/A   Clear
4:56 AM 35.6 °F - 30.2 °F 81% 29.92 in 10.0 mi Calm Calm - N/A   Clear
5:56 AM 37.9 °F 32.7 °F 30.0 °F 73% 29.93 in 10.0 mi NNE 6.9 mph - N/A   Clear
6:56 AM 37.9 °F - 30.0 °F 73% 29.94 in 10.0 mi Calm Calm - N/A   Mostly Cloudy
7:56 AM 44.1 °F 41.5 °F 30.9 °F 60% 29.95 in 10.0 mi ENE 4.6 mph - N/A   Partly Cloudy
8:56 AM 44.1 °F 41.5 °F 33.1 °F 65% 29.94 in 10.0 mi NNE 4.6 mph - N/A   Partly Cloudy
9:56 AM 50.0 °F - 33.1 °F 52% 29.92 in 10.0 mi Variable 4.6 mph - N/A   Clear
10:56 AM 54.0 °F - 34.0 °F 47% 29.89 in 10.0 mi NNE 5.8 mph - N/A   Scattered Clouds
11:56 AM 57.9 °F - 30.9 °F 36% 29.86 in 10.0 mi Calm Calm - N/A   Clear
12:56 PM 60.1 °F - 32.0 °F 35% 29.83 in 10.0 mi WNW 4.6 mph - N/A   Clear
1:56 PM 63.0 °F - 30.9 °F 30% 29.79 in 10.0 mi Calm Calm - N/A   Clear
2:56 PM 62.1 °F - 32.0 °F 32% 29.78 in 10.0 mi WNW 12.7 mph 17.3 mph N/A   Clear
3:34 PM 60.8 °F - 33.8 °F 36% 29.77 in 4.0 mi WNW 11.5 mph - N/A   Haze
3:43 PM 59.0 °F - 32.0 °F 36% 29.77 in 5.0 mi NW 15.0 mph - N/A   Haze
3:56 PM 59.0 °F - 32.0 °F 36% 29.78 in 10.0 mi WNW 11.5 mph - N/A   Scattered Clouds
4:56 PM 57.0 °F - 33.1 °F 40% 29.78 in 10.0 mi WNW 5.8 mph - N/A   Scattered Clouds
5:56 PM 55.0 °F - 32.0 °F 42% 29.77 in 10.0 mi West 3.5 mph - N/A   Overcast
6:56 PM 51.1 °F - 34.0 °F 52% 29.76 in 10.0 mi East 4.6 mph - N/A   Mostly Cloudy
7:56 PM 51.1 °F - 33.1 °F 50% 29.76 in 10.0 mi SE 4.6 mph - N/A   Mostly Cloudy
8:56 PM 48.0 °F - 33.1 °F 56% 29.75 in 10.0 mi SSE 4.6 mph - N/A   Scattered Clouds
9:56 PM 48.0 °F - 33.1 °F 56% 29.74 in 10.0 mi NW 4.6 mph - N/A   Mostly Cloudy
10:56 PM 48.9 °F - 33.1 °F 54% 29.72 in 10.0 mi Calm Calm - N/A   Overcast
11:56 PM 45.0 °F 42.6 °F 33.1 °F 63% 29.69 in 10.0 mi SE 4.6 mph - N/A   Scattered Clouds